Regional Weather Roundup
Issued by NWS

Home | Current Version | Previous Version | Text Only | Print | Product List | Glossary On
Versions: 1 2 3 4 5 6 7 8 9 10 11 12 13 14 15 16 17 18 19 20 21 22 23 24 25 26 27 28 29 30 31 32 33 34 35 36 37 38 39 40 41 42 43 44 45 46 47 48 49 50
000
ASUS46 KPQR 071410
RWROR

OREGON REGIONAL WEATHER ROUNDUP
NATIONAL WEATHER SERVICE PORTLAND OR
600 AM PST SUN FEB 07 2016

NOTE: "FAIR" INDICATES FEW OR NO CLOUDS BELOW 12,000 FEET WITH
NO SIGNIFICANT WEATHER AND/OR OBSTRUCTIONS TO VISIBILITY.

ORZ001>013-071500-
NORTHWEST OREGON


CITY           SKY/WX    TMP DP  RH WIND       PRES   REMARKS
ASTORIA        CLOUDY    46  41  82 E6        30.47R
NEWPORT        CLOUDY    48  46  93 E8        30.47S
PORTLAND       CLOUDY    45  41  86 NW3       30.51S
VANCOUVER WA   CLOUDY    44  41  89 CALM      30.51R
SCAPPOOSE      CLOUDY    43  41  93 CALM      30.50S
HILLSBORO      CLOUDY    42  41  96 NW5       30.50R FOG
AURORA         MOCLDY    43  41  93 N3        30.50S
MCMINNVILLE    CLOUDY    45  41  86 CALM      30.50S
SALEM          CLOUDY    46  42  86 CALM      30.49R
CORVALLIS      CLOUDY    45  43  93 CALM      30.49S
EUGENE         FOG       46  45  96 NE5       30.48S VSB 1/4
$$

ORZ021-028-071500-
SOUTHWEST OREGON


CITY           SKY/WX    TMP DP  RH WIND       PRES   REMARKS
NORTH BEND     PTCLDY    46  46 100 SE5       30.44S
BROOKINGS      PTCLDY    48  47  96 CALM      30.38F FOG
ROSEBURG       CLOUDY    49  48  97 CALM      30.46S
SEXTON SUMMIT  LGT RAIN  44  40  85 SE12      30.44S
MEDFORD        PTCLDY    39  37  92 CALM      30.48S
$$

ORZ014>016-041-071500-
COLUMBIA GORGE


CITY           SKY/WX    TMP DP  RH WIND       PRES   REMARKS
TROUTDALE      CLOUDY    46  38  73 E18       30.49F
THE DALLES     CLOUDY    38  33  82 CALM      30.59R
$$

ORZ029>031-041-044-049-050-061>064-502-503-505>511-071500-
EASTERN OREGON


CITY           SKY/WX    TMP DP  RH WIND       PRES   REMARKS
REDMOND        PTCLDY    28  25  88 CALM      30.50R
BEND           PTCLDY    32  30  93 S5        30.51R WCI  27
PRINEVILLE     PTCLDY    30  28  93 CALM      30.51R
KLAMATH FALLS  CLEAR     31  29  92 E5        30.50S WCI  26
LAKEVIEW       PTCLDY    21  19  93 NW6       30.52S WCI  14
HERMISTON      CLEAR     27  25  92 S5        30.57R WCI  22
PENDLETON      CLEAR     30  26  85 SE7       30.54R WCI  23
JOHN DAY       CLEAR     34  31  90 SE3       30.53R
MEACHAM        CLOUDY    25  22  88 CALM      30.51R
LA GRANDE      CLOUDY    32  25  74 CALM      30.54R
BAKER CITY     FOG       20  19  96 CALM      30.56R VSB 1/2
BURNS          MOCLDY    18  15  88 SW5       30.53R FOG     WCI  11
ROME             N/A     32  27  81 S8        30.51R WCI  25
ONTARIO        PTCLDY    27  25  92 CALM      30.60R
$$



USA.gov is the U.S. government's official web portal to all federal, state and local government web resources and services.